RH
44 48 56 63 71 71 68 66 63 61 60 60 60 61 64 68 70 72 74 76 78 80 82 82 80 80 79 77 76 73 72 72 72 74 76 77 77 74 71 68 65 63 60 58 56 56 59 62 64 64 66 69 70 73 75 77 80 81 83 84 82 81 79 79 84 82 71 63 59 59 59 62 65 62 60 58 54 53 53 54 54 52 51 47 43
46 55 63 70 72 64 58 57 59 62 63 64 66 65 68 73 76 79 81 82 83 84 86 87 89 90 90 90 88 84 82 79 75 73 73 74 75 76 76 72 69 66 63 62 59 58 61 64 66 66 67 69 70 73 76 78 81 83 84 86 86 83 79 78 80 82 78 69 63 61 62 66 69 65 62 60 55 55 55 55 56 54 54 52 47
53 62 69 73 69 59 57 61 64 67 68 68 69 71 75 79 80 83 84 84 84 84 85 87 89 90 89 91 92 91 90 87 84 82 79 78 74 73 76 75 72 70 67 66 63 61 63 66 69 69 70 72 72 74 77 78 80 83 84 85 86 84 81 78 79 80 79 73 68 64 64 69 72 68 64 61 57 57 57 57 58 57 56 54 50
62 69 73 74 68 60 63 69 71 72 71 71 75 79 82 83 83 85 86 86 85 86 87 89 90 90 89 90 91 91 91 89 89 88 87 86 82 78 77 76 75 74 71 70 68 66 67 68 71 71 71 74 76 76 79 81 83 84 85 86 86 85 82 79 78 79 79 77 72 67 67 70 72 70 67 64 60 59 59 60 60 59 58 53 50
69 74 78 77 68 62 68 75 74 74 74 78 83 85 87 87 87 87 87 89 90 91 92 91 90 90 90 90 90 90 92 94 95 95 93 91 88 86 87 85 81 78 75 73 72 72 73 72 72 73 73 76 78 79 82 83 85 87 88 88 88 87 85 82 80 79 80 82 77 72 69 70 73 73 69 67 64 61 62 63 62 62 59 52 49
74 80 82 77 68 68 75 77 76 78 81 85 88 88 88 89 89 89 90 92 93 93 94 93 92 91 91 91 89 89 92 92 89 87 88 87 84 83 88 91 89 86 84 80 76 76 79 78 75 75 75 78 79 81 83 85 86 88 90 91 90 89 88 86 84 82 83 84 81 77 73 72 74 75 72 70 67 64 65 66 65 63 57 53 51
79 85 83 75 71 76 80 79 81 84 85 87 89 89 90 90 91 92 93 94 95 94 95 94 94 94 94 94 93 93 95 95 90 87 89 91 91 89 90 92 89 85 81 79 77 80 83 83 81 79 78 79 80 82 84 85 86 88 90 91 91 91 91 90 88 86 86 85 83 80 77 74 75 75 73 71 69 69 70 70 72 65 56 56 53
87 88 81 75 78 82 82 82 85 87 88 89 90 91 92 93 93 95 96 97 97 96 96 97 97 98 99 98 98 99 101 102 101 99 97 97 98 98 98 96 93 88 83 83 83 85 88 86 84 83 81 81 81 82 83 84 86 89 91 92 93 93 94 94 92 90 89 88 85 82 79 77 77 77 76 76 75 74 72 73 76 70 63 59 53
92 87 79 80 84 84 85 86 87 89 91 92 92 94 95 96 97 98 99 98 97 96 97 98 99 101 101 101 101 102 103 103 102 101 101 100 100 101 100 98 96 94 90 87 88 89 90 90 87 85 84 83 82 82 82 82 83 86 89 92 94 95 95 94 94 94 92 90 87 84 82 81 79 78 80 80 79 77 74 74 77 73 70 63 52
93 85 81 84 86 86 88 89 90 92 94 95 96 97 97 98 99 99 99 97 95 95 96 98 99 100 101 101 101 101 102 101 101 102 101 100 99 100 101 100 99 98 94 89 89 91 91 91 89 86 85 85 83 84 85 86 85 86 86 86 88 92 96 97 96 95 93 91 89 86 83 83 81 80 81 80 78 78 76 77 79 74 72 69 61
92 85 84 86 88 89 91 92 94 95 96 97 98 98 99 99 99 98 97 96 94 95 97 98 99 99 100 101 101 101 100 98 100 102 100 97 96 96 96 95 95 97 98 96 93 92 91 91 89 87 86 87 87 90 92 91 89 88 89 89 87 85 89 94 96 96 95 93 89 86 85 84 82 81 80 80 81 81 78 77 81 78 76 81 79
92 86 86 86 89 91 93 95 96 96 97 98 98 98 100 100 98 97 96 94 95 97 98 98 98 98 99 99 100 99 97 97 100 100 97 95 94 93 94 94 92 94 98 99 96 93 92 91 91 89 87 87 88 90 91 90 88 86 86 88 90 88 87 88 89 89 91 92 90 87 85 84 84 83 82 81 83 82 79 79 81 78 76 81 83
92 87 87 88 91 93 95 97 98 97 98 98 99 100 100 99 98 96 95 95 97 98 98 98 98 98 97 97 98 95 93 95 99 99 96 93 91 90 92 95 96 97 98 99 98 96 93 92 92 91 89 87 87 88 88 88 87 86 85 84 86 89 89 89 90 88 86 87 88 88 86 84 85 85 81 81 83 83 82 81 78 75 72 75 76
91 88 88 91 94 95 97 99 99 99 99 99 100 101 100 99 98 96 96 97 98 99 99 99 99 97 95 93 92 93 94 96 97 96 95 93 90 89 91 95 97 98 99 99 98 96 94 93 94 93 90 89 88 89 89 87 87 86 88 88 87 86 86 88 94 96 93 91 89 85 82 83 84 83 81 82 83 81 80 79 75 72 72 74 73
90 90 91 94 96 97 99 100 100 100 100 100 101 101 100 99 97 96 97 98 100 100 99 99 98 94 90 89 92 97 98 94 93 95 96 94 91 91 94 97 98 98 99 100 100 98 94 93 93 92 92 90 88 90 90 89 90 89 89 89 86 84 81 77 79 82 86 93 94 87 80 80 81 81 81 83 83 79 78 76 74 74 75 76 76
90 92 95 97 98 99 101 102 102 102 101 101 102 101 100 100 97 96 98 100 101 101 99 98 95 90 90 94 98 99 94 90 93 98 97 94 93 95 98 100 98 98 99 99 100 100 96 95 94 93 94 91 89 93 95 93 93 94 94 93 89 88 85 77 76 81 83 89 96 96 89 83 82 82 82 82 80 78 80 81 80 81 84 85 87
93 96 98 99 101 101 103 103 102 102 102 102 103 101 100 100 98 98 100 102 101 100 98 96 93 93 96 97 95 92 90 92 96 98 97 96 96 97 101 101 99 98 98 99 100 100 99 99 97 96 96 93 91 95 99 98 97 95 95 94 93 94 88 78 79 89 93 94 98 101 97 90 88 90 91 89 83 79 83 88 88 88 91 95 97
96 100 101 101 102 102 103 103 103 103 103 103 102 101 101 100 99 99 101 102 101 99 98 96 95 95 94 90 89 92 94 95 96 98 100 99 98 99 100 101 100 98 98 98 99 100 100 100 99 99 98 94 93 97 98 97 99 99 96 96 98 98 93 82 79 83 86 90 95 99 99 97 96 99 98 97 94 87 82 83 86 91 95 98 98
99 102 102 102 103 102 102 102 103 103 103 103 102 101 100 100 99 100 101 101 100 98 97 98 96 93 90 88 89 92 93 91 92 99 102 100 99 100 100 101 101 99 99 98 97 98 100 100 101 101 98 95 97 101 98 95 100 102 99 100 102 100 95 89 87 84 79 78 80 82 87 89 94 101 99 95 96 92 83 80 84 89 93 94 94
101 102 102 102 101 101 102 102 102 102 102 102 101 100 100 100 99 100 100 98 98 97 97 97 95 91 89 89 88 89 90 89 90 97 102 100 98 98 99 101 101 100 100 99 98 99 100 99 99 99 98 98 99 100 96 91 95 100 101 101 101 98 94 92 91 88 84 79 73 70 72 75 84 97 101 97 97 96 92 92 92 89 87 88 90
102 101 102 102 100 100 101 100 100 102 101 100 100 100 100 100 99 99 99 97 97 97 95 94 94 93 90 89 88 87 86 86 89 96 101 100 97 97 99 102 101 101 101 100 100 100 100 99 96 92 92 94 93 94 93 89 90 96 101 101 97 92 93 93 91 90 90 88 83 77 74 73 79 92 99 99 100 100 99 100 100 96 93 91 91
102 102 102 101 99 99 99 99 100 101 100 99 101 101 99 98 97 97 98 97 97 96 95 94 95 94 91 88 86 85 84 85 88 95 100 102 99 98 99 100 98 98 101 101 100 99 98 98 94 89 90 91 86 86 88 87 89 94 97 99 96 91 91 93 93 94 96 98 97 94 88 82 81 89 96 98 98 97 96 97 99 100 99 97 95
102 102 101 99 99 98 99 99 100 100 99 99 101 101 99 97 97 97 97 97 97 96 95 95 96 95 91 88 85 84 85 87 90 95 100 102 101 99 99 98 96 96 100 102 100 98 97 95 93 92 94 92 87 86 87 86 87 89 88 89 89 88 90 96 98 99 100 100 100 101 98 91 86 89 93 93 90 87 85 87 90 93 94 95 97
101 101 101 99 98 99 99 100 99 98 98 100 101 101 99 97 98 98 96 96 98 98 97 97 98 97 93 90 88 87 88 90 91 95 99 101 102 101 101 99 96 96 99 101 100 100 99 97 96 96 94 90 87 87 87 86 85 84 81 80 81 86 93 99 101 101 101 101 100 100 100 98 94 90 85 81 80 79 78 80 83 85 88 93 98
101 101 101 100 99 99 100 100 99 98 98 99 100 100 99 99 99 98 97 97 98 100 100 99 99 98 95 92 92 92 90 90 89 91 97 101 100 96 97 101 100 98 99 99 98 98 97 94 93 92 89 87 86 85 86 86 83 80 79 78 79 86 95 101 101 100 100 101 100 99 100 100 96 86 77 77 81 84 84 85 86 88 91 97 100
100 100 101 100 99 100 101 100 99 99 98 98 99 99 100 100 99 98 98 98 99 99 101 100 98 97 95 93 95 95 92 89 89 91 96 98 90 79 78 85 92 97 100 99 96 93 91 87 86 86 88 89 88 88 91 91 87 82 82 82 81 85 92 99 102 101 99 99 100 99 99 99 94 87 85 90 94 92 91 91 90 92 97 100 100
100 100 101 101 100 100 101 100 100 99 98 98 98 99 100 98 98 99 99 100 101 102 101 100 100 99 97 97 99 98 94 90 90 93 96 92 81 74 72 75 83 94 100 100 97 95 94 91 86 85 88 90 88 90 93 94 92 88 87 89 91 91 91 94 99 99 97 95 97 98 97 97 97 95 97 100 98 95 94 94 92 92 95 99 100
100 100 101 101 100 101 100 100 100 100 99 99 99 100 99 97 98 100 100 102 104 103 102 102 101 100 100 101 102 100 96 93 95 99 100 94 87 88 90 89 92 98 100 101 99 96 97 98 90 85 89 92 91 93 95 96 98 97 92 92 96 97 93 92 96 99 96 92 93 97 98 99 100 100 100 99 97 97 98 98 94 91 92 97 100
100 100 101 100 100 101 101 100 100 100 100 100 99 98 97 98 100 101 100 101 103 102 103 105 104 102 102 102 102 103 101 99 99 98 95 94 95 98 99 96 97 98 98 100 100 96 96 101 97 92 94 97 96 96 98 99 100 100 98 97 98 100 99 96 97 100 98 95 94 96 99 101 100 100 101 99 98 99 100 100 98 95 95 98 100
100 100 101 100 100 100 100 100 100 101 100 100 100 97 95 97 102 103 101 100 100 100 101 100 98 102 104 102 102 103 101 100 100 95 90 90 94 96 95 93 94 93 92 95 99 97 97 101 101 99 100 100 100 100 99 100 100 100 100 100 99 99 101 100 99 100 99 97 95 95 98 101 100 100 101 100 99 100 100 100 100 99 99 100 100
101 100 100 100 100 100 100 100 100 100 100 100 100 99 97 96 97 99 102 102 100 99 98 93 89 94 101 103 103 102 99 98 98 97 96 96 96 97 96 96 97 97 94 95 99 100 100 100 101 101 100 100 101 100 97 98 101 101 100 101 101 100 100 100 100 100 100 99 98 97 99 101 100 100 100 100 100 100 100 100 100 100 100 100 100
101 100 100 101 101 100 100 100 100 100 100 100 100 100 100 98 94 92 96 102 103 102 101 98 94 95 98 100 101 101 100 100 99 99 100 100 99 99 98 99 102 99 93 93 99 102 102 101 101 102 101 100 102 102 99 100 102 100 99 100 101 100 100 100 100 100 100 101 100 100 101 100 100 100 99 97 97 99 100 100 100 99 100 100 100
103 100 101 102 102 101 100 100 100 100 100 100 100 100 100 101 100 96 94 96 99 101 102 101 101 101 100 100 100 101 101 100 99 100 100 99 101 102 97 96 100 96 90 94 101 102 102 104 104 103 103 102 102 102 102 100 99 96 96 98 98 97 97 98 98 98 98 98 99 99 99 99 97 96 93 91 91 94 99 101 100 100 101 100 99
103 101 101 103 101 100 100 100 100 100 100 100 100 100 100 100 101 101 99 95 94 94 94 96 98 99 99 99 99 100 100 100 100 101 99 100 104 99 84 78 85 89 90 98 104 101 101 104 105 104 104 103 103 102 101 99 97 95 94 94 94 93 92 91 90 90 90 91 91 91 92 93 93 92 92 92 92 94 97 99 98 99 99 98 98
104 101 101 102 102 101 100 100 100 100 100 100 100 100 100 100 100 101 101 100 98 97 94 93 94 95 96 98 99 98 97 98 101 101 99 101 103 93 79 78 87 92 95 100 103 102 101 102 103 105 104 101 101 101 100 98 97 96 94 93 92 90 89 87 86 85 84 83 84 84 85 87 89 89 91 93 94 94 95 96 96 96 94 93 93
104 102 101 103 104 102 100 101 101 100 100 100 100 100 100 101 101 101 100 100 100 100 98 95 93 92 93 96 100 99 96 97 102 102 100 102 103 95 91 96 100 99 99 100 102 104 104 101 102 105 104 101 100 100 99 99 98 97 95 94 92 90 89 87 85 84 83 82 82 83 84 84 86 87 88 90 91 91 90 90 92 93 92 91 90
103 102 103 104 104 102 102 102 101 100 100 100 100 100 100 100 100 101 101 100 100 100 100 98 95 94 93 95 99 100 96 95 99 102 101 102 103 100 99 100 100 99 100 100 100 102 104 103 104 106 105 103 102 100 98 98 98 97 96 95 94 94 93 91 89 88 88 86 86 87 88 89 89 89 89 91 92 91 91 90 91 93 94 94 94
101 102 103 103 102 102 104 103 101 100 100 100 100 100 100 100 100 100 101 101 100 99 100 100 98 98 98 98 99 101 97 94 95 98 99 99 100 100 100 100 99 100 101 100 100 100 101 103 105 106 105 105 104 103 101 99 98 98 97 97 98 99 99 98 96 95 95 95 95 95 95 97 97 96 95 95 95 95 95 93 93 95 96 96 98
101 100 100 101 102 103 105 103 101 100 100 100 100 100 100 100 100 100 101 101 101 100 100 101 100 99 100 100 100 100 99 97 98 99 99 100 100 100 100 100 100 100 100 100 100 100 100 103 105 104 104 105 105 105 104 103 101 101 99 98 100 101 101 100 99 98 99 100 101 101 101 102 102 102 101 102 101 100 100 98 96 97 98 97 98
101 100 99 101 103 105 106 104 101 100 100 100 99 100 100 100 100 100 100 100 100 100 100 101 100 100 100 100 100 101 100 100 101 100 100 100 100 100 100 100 100 100 100 100 100 100 100 103 105 104 103 103 103 103 104 104 104 103 102 102 103 103 101 100 99 99 101 102 102 103 103 102 101 100 101 102 103 102 102 102 101 100 100 99 98
101 101 100 100 102 104 105 103 101 100 100 100 100 100 100 100 100 100 100 100 100 100 100 100 100 100 100 100 100 101 101 100 100 100 100 100 100 100 100 100 100 100 100 100 100 100 100 102 103 104 103 102 101 100 102 103 104 104 103 103 104 103 102 102 101 101 103 103 103 103 103 101 100 99 99 100 102 102 101 101 101 100 100 99 98
101 100 100 100 101 103 104 103 102 101 100 100 100 100 100 100 100 100 100 100 100 100 100 100 100 100 101 100 99 100 101 100 100 100 100 100 100 100 100 100 100 100 100 100 101 101 100 100 101 102 102 101 101 100 100 102 103 103 103 103 104 103 103 104 104 104 103 102 102 103 102 102 101 101 100 102 102 101 101 101 101 101 101 99 99
100 100 100 100 101 103 105 103 102 101 100 100 100 100 100 100 100 100 100 100 100 100 100 101 101 101 100 100 100 100 100 100 100 100 100 100 100 100 101 101 101 101 100 100 102 103 101 100 100 101 101 101 101 101 102 103 103 103 103 104 103 103 103 104 104 104 104 102 102 103 103 102 102 102 103 103 102 101 101 102 102 102 102 101 101
100 100 100 100 100 102 104 104 103 101 101 101 101 101 100 100 100 100 100 100 100 100 100 100 101 101 100 100 100 100 100 100 100 100 100 100 100 100 100 100 101 102 101 100 101 103 103 102 100 100 101 101 101 101 103 104 104 104 104 103 103 103 103 104 104 104 104 103 103 103 103 102 102 102 103 104 104 103 103 102 102 102 102 102 102
100 100 100 100 101 100 101 103 103 101 100 101 101 101 101 101 100 100 100 100 100 100 100 100 100 100 100 100 100 100 100 101 100 100 100 100 100 100 100 100 101 101 101 100 100 101 103 104 103 101 101 101 100 101 102 103 104 104 105 105 104 104 104 105 105 104 104 103 103 103 102 102 102 103 104 104 104 102 102 103 103 103 102 102 102
100 100 100 100 100 100 100 101 101 100 100 100 100 100 101 101 100 100 100 100 100 100 100 100 100 100 100 100 100 100 100 101 101 100 100 100 100 100 100 100 100 100 101 101 101 100 101 103 104 103 101 101 100 100 100 101 102 103 104 105 104 104 105 106 106 105 104 105 104 103 103 102 102 101 103 104 103 101 102 104 105 103 102 102 103
100 100 100 100 100 100 100 100 100 101 100 100 101 101 101 101 101 100 100 100 100 100 100 100 100 100 100 100 100 100 100 101 100 100 100 100 100 100 100 100 100 100 100 101 101 101 100 100 102 103 102 101 100 100 100 100 100 100 102 104 105 105 105 105 105 105 105 105 105 104 104 104 103 102 102 103 104 103 103 104 103 101 101 102 103
100 100 100 100 100 100 101 100 100 101 100 101 103 103 101 100 101 100 100 100 100 100 100 100 100 100 101 101 100 100 100 100 100 101 101 100 101 101 100 100 100 100 100 100 101 102 102 101 100 101 101 100 100 100 100 100 101 100 99 101 103 104 104 104 104 104 104 105 104 104 104 104 104 104 104 104 104 105 104 103 102 102 103 102 103
100 100 100 100 100 101 101 100 100 101 102 104 105 104 102 101 101 101 101 101 100 100 100 100 100 100 101 100 100 100 100 100 101 101 101 100 100 100 100 100 100 100 100 100 100 101 103 104 103 102 101 100 99 98 97 97 100 101 100 100 102 104 104 103 103 103 103 103 103 103 103 103 103 104 104 104 104 104 104 104 104 104 104 104 103
100 101 100 100 101 101 100 100 101 102 103 105 105 104 102 102 102 102 102 101 100 100 101 100 100 100 100 100 100 100 100 100 100 101 100 100 100 100 100 100 100 100 100 100 100 100 101 103 106 106 104 102 101 98 94 92 96 100 101 101 101 100 100 101 104 104 103 102 102 102 102 101 101 102 104 104 104 103 103 104 105 105 104 104 104
101 101 101 100 100 101 101 102 103 103 103 104 105 104 102 102 102 103 102 100 100 101 100 100 100 100 100 100 100 100 100 100 100 100 100 100 101 101 101 100 100 100 100 100 100 100 100 101 104 106 106 105 104 100 95 93 97 100 100 98 95 92 92 97 103 106 105 103 102 102 101 100 99 100 102 102 103 104 104 104 104 104 103 103 104
Wind_Speed
32 29 28 28 28 29 30 29 28 29 29 29 29 28 28 31 34 34 33 32 31 32 32 31 31 31 31 31 31 31 32 33 32 32 32 32 31 31 31 30 30 31 32 32 32 32 34 35 35 35 33 31 31 30 29 29 28 27 26 26 25 25 24 19 12 10 14 19 19 19 20 21 22 24 24 25 24 22 22 22 22 22 22 23 24
29 27 26 25 25 29 31 29 27 28 28 27 27 28 30 31 32 32 32 31 31 32 33 33 32 32 32 32 32 32 32 33 33 33 33 34 34 33 32 31 31 32 31 31 31 32 33 34 34 34 32 32 31 30 29 28 28 27 27 26 26 26 25 23 17 11 11 16 19 20 21 22 23 23 23 23 23 21 21 21 22 22 23 23 24
25 24 23 21 28 37 34 27 26 27 27 27 29 29 30 31 31 30 30 31 31 31 31 32 32 32 32 32 31 30 30 31 32 32 32 34 36 36 35 33 33 32 31 31 31 32 32 33 33 33 31 31 31 30 29 28 27 27 27 26 26 26 26 25 22 15 11 13 17 19 20 21 22 22 21 22 21 20 21 21 22 23 24 24 24
23 22 21 25 39 44 34 27 27 28 29 30 29 29 30 30 30 29 29 31 31 30 30 29 30 30 30 30 30 30 31 32 32 32 32 31 33 35 34 34 33 32 32 32 31 32 32 32 31 31 30 30 30 29 28 27 27 27 26 26 27 26 26 26 25 21 16 14 15 18 20 20 21 20 19 19 20 21 21 21 22 23 24 23 21
22 21 24 35 45 42 31 27 28 29 30 30 28 29 29 29 29 28 29 31 31 30 29 29 28 29 29 29 30 31 32 32 31 31 29 27 29 31 31 31 32 33 33 32 31 32 32 32 31 30 30 29 29 28 27 26 26 26 26 26 26 25 25 25 25 24 20 16 15 17 19 19 19 19 19 19 19 21 21 20 21 22 23 21 18
21 23 30 41 43 35 27 26 27 28 29 27 27 29 29 29 29 29 30 31 31 31 30 29 28 29 30 30 30 30 31 32 33 33 31 30 31 33 32 31 30 30 30 30 31 32 32 32 32 30 30 30 28 27 26 26 26 26 26 25 25 24 24 24 24 23 22 19 17 16 18 19 19 17 18 18 18 19 19 19 20 20 19 18 17
21 27 35 41 36 28 25 26 26 27 27 27 29 30 30 30 30 30 31 31 31 31 31 30 30 30 31 30 30 31 32 34 35 35 33 32 32 33 33 33 33 32 31 31 32 32 32 32 32 31 31 31 30 28 27 26 27 26 26 26 25 24 23 22 22 22 20 19 17 16 16 18 19 17 17 16 15 16 16 16 17 17 16 17 18
22 30 36 37 30 25 26 27 27 27 28 29 30 30 30 30 30 31 31 30 31 31 32 33 33 32 31 30 31 32 32 32 32 31 32 33 33 33 33 33 33 32 32 31 31 32 32 32 32 31 32 32 31 30 28 27 26 25 25 25 25 24 23 22 21 21 19 17 16 16 15 15 16 15 15 13 13 14 15 14 13 15 16 17 18
24 32 34 32 27 26 27 27 27 28 29 30 31 31 31 31 31 32 31 32 33 34 34 34 34 33 33 33 34 34 33 32 32 32 34 35 34 34 35 35 33 32 31 30 30 31 31 31 31 31 31 31 31 31 30 29 28 26 25 25 25 25 23 22 21 19 18 16 15 14 13 12 13 13 13 14 15 16 14 12 13 14 15 18 19
26 32 31 29 27 27 27 27 28 30 31 31 31 32 32 33 34 34 34 35 36 37 37 36 35 36 36 37 37 36 36 35 34 33 34 35 35 34 34 33 32 31 31 30 29 29 30 30 31 31 31 31 31 30 28 28 28 27 27 27 27 26 24 22 20 19 17 15 14 13 11 11 12 13 14 16 16 16 13 12 13 14 12 14 15
28 31 30 30 29 28 28 29 31 33 33 32 33 34 35 36 37 37 37 37 37 37 37 37 37 37 37 38 38 38 38 37 34 34 34 34 35 35 33 31 30 30 30 30 29 28 28 29 30 30 30 30 29 27 25 25 26 25 26 27 29 29 28 24 21 20 19 16 16 16 13 13 14 15 16 17 16 15 14 13 13 12 10 9 7
28 30 30 31 31 31 32 34 36 36 35 35 36 37 37 37 37 38 38 38 38 37 37 37 38 38 38 39 39 39 39 36 33 34 34 34 34 34 33 32 32 31 30 30 30 29 28 28 28 29 30 29 28 26 25 25 25 25 25 26 27 29 30 29 26 24 23 20 18 19 19 17 17 17 18 19 18 16 15 14 13 12 12 10 7
28 30 31 33 34 35 35 36 38 38 37 38 38 38 37 37 37 38 38 39 38 37 37 38 38 38 39 39 40 40 39 35 33 34 35 35 33 33 32 31 31 31 29 29 30 30 28 27 26 28 29 29 28 27 26 26 25 25 25 25 26 26 27 29 29 28 28 27 23 22 23 22 20 19 21 22 18 16 14 13 13 13 13 12 12
28 30 33 35 36 37 37 37 38 38 39 40 39 38 38 37 37 38 38 38 38 38 38 39 38 39 39 40 41 40 36 32 33 35 35 33 33 33 32 31 29 27 26 28 30 30 29 28 26 26 28 28 28 27 27 27 27 27 26 25 26 26 26 26 25 24 25 27 27 27 27 25 23 23 23 22 19 17 15 14 13 13 13 13 14
28 31 34 36 37 37 38 38 38 39 40 40 39 39 38 38 38 39 38 37 37 38 38 38 39 40 40 40 39 36 33 33 35 35 33 33 33 32 31 28 26 23 21 24 28 30 30 29 28 27 27 28 28 27 26 27 27 26 26 26 27 28 29 30 30 28 26 24 25 29 29 27 25 25 24 22 21 19 16 13 13 12 12 12 14
29 32 35 37 38 38 37 38 40 40 40 40 40 39 38 39 39 39 39 38 37 37 38 39 41 42 40 37 35 34 35 35 34 33 32 33 32 31 28 25 23 21 19 21 24 27 28 28 28 27 27 27 27 26 25 26 26 25 25 25 26 27 28 30 29 29 28 25 22 25 28 27 24 22 22 21 21 19 15 13 13 12 11 10 12
30 33 35 37 38 38 37 38 40 40 40 40 40 39 38 39 40 39 38 39 38 38 39 41 40 39 36 35 36 38 38 35 33 33 33 32 31 30 26 23 21 20 18 19 20 22 24 26 26 26 26 26 27 25 23 24 25 26 25 25 25 25 27 28 26 24 25 25 23 21 23 25 23 20 19 19 18 17 15 15 17 15 11 7 6
32 34 36 37 37 37 37 37 38 39 39 38 38 39 38 39 39 38 37 38 38 39 40 40 38 36 36 38 39 38 37 35 34 33 32 31 30 28 25 22 20 19 17 17 18 19 21 23 24 25 26 26 27 25 23 23 23 24 25 25 24 24 25 25 25 23 23 24 25 23 20 21 22 21 20 19 18 18 19 20 20 17 14 10 7
33 35 36 37 37 37 37 36 36 37 38 37 37 38 38 38 38 37 36 37 38 39 38 37 37 38 39 40 39 37 37 37 36 33 31 30 28 27 24 21 18 17 16 15 16 17 19 21 22 23 25 26 25 23 23 24 23 22 23 23 21 22 24 23 23 23 22 23 26 28 25 21 19 20 21 21 20 21 24 24 21 18 16 14 11
35 36 37 37 38 37 36 36 36 36 37 37 37 36 37 38 38 37 37 37 37 38 37 36 37 39 40 38 38 37 37 37 36 34 31 28 27 26 24 20 17 15 15 15 15 16 18 20 21 21 22 23 23 22 22 24 25 24 22 21 20 21 21 21 21 22 22 21 23 27 29 26 20 18 20 22 23 23 24 25 25 23 19 16 13
35 36 37 38 38 38 37 37 37 36 35 35 36 36 36 36 37 37 37 38 37 37 37 36 35 37 38 37 37 38 37 36 36 34 31 28 26 24 23 20 18 17 16 15 15 16 17 19 20 20 20 20 21 22 23 24 25 25 24 23 24 22 19 19 20 21 21 21 20 22 27 28 24 20 18 20 22 20 17 18 22 24 22 18 14
35 36 37 38 38 38 38 38 37 36 35 34 35 36 36 36 36 36 37 37 37 37 36 35 33 34 37 38 38 37 38 37 36 34 31 28 26 24 23 21 19 18 18 17 17 17 18 19 20 20 19 19 21 22 23 24 25 24 24 24 24 22 21 21 21 20 20 20 19 19 21 25 25 24 21 20 21 20 17 15 16 18 20 20 18
34 36 37 38 38 38 38 38 37 36 35 34 33 34 35 36 36 36 36 36 36 35 34 33 32 32 35 37 38 38 38 36 35 33 30 27 25 23 22 21 20 19 19 18 18 18 19 20 21 20 18 19 21 22 23 24 24 23 23 24 23 23 23 22 21 20 20 18 17 17 18 21 23 24 24 24 23 22 21 20 18 17 18 19 20
34 36 37 38 39 39 38 37 36 35 34 33 33 33 35 35 35 35 35 35 33 32 32 31 29 29 31 34 36 37 36 34 34 34 30 25 23 22 21 20 19 18 19 19 19 18 19 20 20 19 19 20 21 22 22 22 22 22 21 22 22 23 22 22 22 21 19 17 16 16 17 19 22 23 25 25 23 21 21 21 21 21 20 20 19
34 35 36 37 38 38 37 36 35 34 33 33 33 33 34 34 34 34 34 33 31 29 29 28 28 27 29 30 31 32 33 33 35 35 32 26 22 21 20 18 16 15 17 18 18 18 18 19 19 19 20 21 20 20 20 20 20 21 21 21 21 21 20 21 22 21 18 16 16 16 17 19 21 23 23 21 19 18 18 19 19 19 19 19 18
34 34 35 36 37 36 36 36 34 33 33 33 32 32 31 32 34 34 32 30 29 28 28 28 28 28 28 27 27 27 30 33 34 35 35 32 26 22 21 20 19 18 17 17 17 18 18 18 18 18 19 19 19 18 18 17 18 19 19 19 20 21 19 19 21 21 19 17 17 17 18 20 21 20 18 16 15 15 15 15 16 17 17 17 17
33 34 35 36 36 34 33 34 33 33 34 34 33 32 31 30 31 32 31 29 26 26 28 29 28 26 25 25 25 26 30 33 33 35 37 34 28 24 24 25 24 22 20 19 17 17 16 16 15 16 16 15 15 15 15 15 16 17 17 18 19 20 20 19 21 22 22 21 20 19 19 19 18 17 16 15 14 14 13 13 15 15 15 14 14
32 34 34 33 33 32 31 31 31 32 33 34 33 33 32 31 31 30 30 28 24 24 27 27 25 25 25 24 23 25 28 30 32 34 35 31 26 24 24 27 27 25 22 20 16 12 12 12 12 13 13 13 13 13 14 14 15 16 17 18 18 18 20 20 20 22 24 23 21 19 18 17 16 16 16 16 15 14 14 13 14 15 14 13 12
32 32 32 31 31 31 30 30 30 31 33 33 33 32 30 29 30 31 30 28 26 28 30 27 24 25 26 24 22 22 25 29 34 37 36 33 32 31 26 19 20 21 17 13 10 8 9 10 10 11 11 12 13 14 13 13 16 18 19 20 19 19 20 20 19 20 23 23 21 19 17 17 17 16 16 16 16 14 13 14 14 15 15 13 11
31 31 30 30 31 30 30 30 30 31 32 32 33 34 32 29 27 27 28 29 29 31 32 29 28 30 28 26 25 24 25 30 35 38 37 35 34 34 35 29 15 11 8 4 5 8 8 7 8 9 10 11 11 10 8 7 7 10 12 16 18 19 19 18 17 18 21 23 22 21 19 17 17 17 16 16 15 13 12 14 15 15 16 15 12
30 30 30 30 31 30 29 30 31 31 31 31 32 34 35 34 31 28 26 27 30 32 31 30 33 33 30 29 30 30 29 31 34 35 35 34 33 32 33 36 27 7 6 6 3 5 6 4 4 5 7 7 5 2 3 2 5 11 10 9 10 12 13 14 14 17 20 22 22 21 20 19 18 18 17 16 15 13 12 13 14 15 17 15 13
29 30 30 30 31 30 29 30 30 30 30 31 31 30 31 33 35 35 32 28 28 29 29 30 33 35 32 31 33 33 32 31 32 33 33 32 31 29 27 32 33 22 12 12 11 10 9 8 8 6 4 2 4 5 3 5 9 12 12 13 13 12 12 11 10 12 15 17 18 19 19 19 19 18 17 16 15 14 13 14 14 15 15 15 13
28 29 29 30 30 30 29 29 29 29 29 30 30 30 28 27 29 34 37 34 30 27 25 27 31 34 32 32 33 34 33 32 31 32 32 30 29 26 23 24 28 28 25 24 22 20 19 19 19 17 15 12 11 10 9 10 11 11 11 13 13 12 12 11 10 11 12 12 13 14 14 15 16 15 14 14 13 13 13 13 13 14 13 13 13
28 28 28 28 29 30 29 29 28 28 28 28 27 27 28 28 27 28 31 33 34 32 30 30 31 32 32 32 33 33 32 32 31 30 30 30 28 24 21 21 24 27 29 28 24 20 21 22 21 21 19 17 16 14 13 12 11 10 11 11 10 9 9 7 7 8 8 8 8 9 9 10 11 11 12 12 11 11 11 11 11 11 11 11 10
28 28 28 27 28 28 29 28 28 27 27 27 26 26 27 28 28 26 25 26 27 29 32 33 33 33 31 30 32 33 31 30 29 29 29 30 29 26 24 24 25 25 27 27 24 21 21 21 20 19 19 18 16 15 14 13 11 10 9 8 8 7 6 5 5 4 4 4 4 4 5 6 7 8 9 10 10 10 11 11 11 11 11 10 9
29 28 28 28 28 28 28 28 27 26 25 25 25 26 26 26 26 25 25 25 24 24 27 31 33 32 30 29 30 32 30 28 28 28 28 28 29 28 27 23 21 21 22 23 22 21 20 20 19 18 17 16 15 13 12 12 11 10 8 7 6 5 4 3 2 1 2 2 3 4 5 6 6 7 8 9 10 10 11 12 12 11 11 11 10
28 27 27 28 28 28 28 27 26 25 24 24 24 25 25 25 24 24 24 25 24 24 25 29 31 32 32 32 31 30 29 27 25 25 27 28 29 29 26 21 19 18 19 20 21 20 20 20 20 18 17 16 14 13 11 10 9 8 7 6 6 5 3 2 1 0 2 3 4 5 6 7 7 8 9 10 10 11 11 12 12 11 11 11 10
28 27 27 28 27 27 26 26 25 24 24 24 25 25 24 24 24 24 24 24 24 24 25 26 27 28 30 32 31 30 28 26 25 25 27 29 30 28 25 22 20 19 18 19 20 19 19 20 20 18 17 16 14 13 12 10 9 7 5 5 5 5 4 3 2 1 2 3 4 4 5 6 7 8 9 10 11 11 12 12 12 12 11 10 10
28 28 28 28 27 26 25 24 24 24 24 24 24 24 23 23 23 23 24 24 23 24 24 24 25 27 29 30 30 29 27 25 24 25 25 26 26 25 24 22 21 20 19 20 20 19 18 19 19 18 17 16 14 13 12 11 9 8 6 3 3 4 4 3 3 2 2 2 3 4 4 5 6 7 8 9 10 11 12 12 13 12 11 11 10
28 28 28 28 27 26 25 24 23 23 23 23 24 23 22 22 22 23 24 23 22 23 23 22 24 27 28 27 28 27 24 22 22 23 22 22 23 24 23 22 22 22 21 20 20 19 18 18 18 17 17 16 15 14 12 11 10 9 7 5 4 5 5 4 3 2 2 3 3 4 4 5 5 6 7 8 9 10 11 11 12 12 11 11 10
27 27 28 28 27 26 25 23 22 23 23 23 23 22 21 22 22 22 23 22 22 22 22 22 24 26 26 25 26 25 22 21 22 22 21 20 21 22 23 22 22 22 21 21 21 20 18 17 17 17 16 15 15 14 13 12 11 10 8 6 6 5 5 5 4 3 3 3 3 3 3 3 4 5 6 7 7 8 9 10 10 11 11 10 9
26 26 27 28 28 26 24 23 22 23 23 23 22 21 21 21 22 21 21 22 22 22 22 22 24 25 24 24 25 24 22 22 22 21 20 20 21 21 22 23 22 22 22 21 21 21 19 17 17 16 15 14 14 14 13 13 12 10 8 6 5 5 5 4 4 3 3 2 2 2 2 2 3 3 4 5 6 7 8 9 9 9 10 10 9
25 26 27 28 27 25 24 23 23 22 22 22 21 21 21 21 21 21 21 21 21 21 21 22 24 25 25 24 24 22 22 22 22 20 20 20 21 21 22 23 22 22 22 21 21 21 19 17 16 16 15 14 14 13 12 12 11 10 9 7 6 5 5 4 3 2 2 2 1 1 2 2 2 2 3 4 5 5 6 7 8 9 9 10 10
26 26 27 27 27 26 24 23 22 22 22 21 21 21 21 21 21 21 21 20 20 21 21 22 23 24 25 25 24 23 22 22 21 19 19 20 21 22 22 23 23 22 21 21 21 21 20 18 16 15 15 14 13 12 11 11 10 9 9 7 6 5 5 5 4 3 2 2 2 2 1 1 1 2 2 2 3 4 5 7 8 8 9 9 10
26 27 27 27 27 26 25 24 23 23 22 22 22 22 21 21 21 21 20 20 20 20 20 21 23 23 23 24 24 22 22 22 21 19 19 21 22 22 22 23 23 21 20 20 20 20 20 20 18 16 15 14 14 13 12 11 10 9 9 8 7 7 7 6 6 5 3 1 1 1 1 1 1 1 2 2 2 3 4 6 7 8 9 9 10
27 28 28 27 26 25 25 24 24 23 23 22 22 22 22 21 20 20 20 20 20 20 20 21 22 22 22 23 23 22 21 21 21 20 20 21 22 22 22 22 22 21 19 19 19 18 18 19 19 17 15 13 12 12 12 12 11 10 9 8 8 7 7 6 5 5 4 3 2 1 1 1 1 0 1 2 2 3 3 4 5 6 8 8 8
28 28 27 27 26 25 25 24 23 23 23 22 21 21 21 21 21 20 19 20 20 19 19 20 21 21 22 22 22 21 21 21 21 20 20 20 21 22 22 22 21 20 19 19 18 17 16 16 17 17 16 14 12 11 10 10 10 10 9 8 7 6 6 6 5 4 4 4 3 2 2 1 0 0 0 2 2 3 3 3 4 5 6 6 7
28 28 27 26 25 24 24 23 23 22 23 23 22 22 21 21 21 20 20 20 20 20 20 20 20 20 21 22 21 21 21 20 20 20 19 20 21 22 22 21 21 20 19 19 18 17 15 14 14 14 15 15 14 12 10 9 9 9 9 8 8 7 6 5 5 4 3 3 3 3 3 2 1 1 0 1 2 2 2 3 3 4 5 5 6
27 26 26 26 25 24 23 23 23 23 23 23 23 23 22 21 21 20 20 20 20 20 20 20 20 20 21 22 21 21 21 20 20 20 19 19 21 22 22 21 20 19 19 19 19 17 16 14 13 12 13 14 14 13 12 10 8 8 8 8 8 8 7 6 4 4 3 2 2 2 3 3 2 2 1 0 1 1 2 1 2 3 4 4 5
26 25 25 25 24 24 24 23 23 23 23 22 22 23 22 22 21 21 21 21 21 20 20 20 20 20 21 21 21 21 21 21 20 20 19 19 20 21 21 21 20 19 19 19 19 17 16 15 14 12 12 13 13 13 12 11 9 8 8 8 9 9 8 6 4 3 3 2 2 1 2 2 2 2 2 1 0 0 1 1 1 2 3 4 4
25 24 24 24 24 24 23 23 22 23 23 22 22 22 22 22 22 22 22 21 21 21 20 20 20 21 21 20 20 21 21 20 19 19 18 19 20 21 21 21 20 19 19 19 19 18 16 16 15 14 13 13 13 12 11 9 8 8 8 8 8 8 8 7 5 3 2 2 1 1 1 1 1 1 2 2 1 1 0 0 1 1 2 2 3
Wind_Direction
341 339 340 342 345 347 344 340 336 333 331 329 329 328 326 324 323 322 322 321 321 320 318 316 314 311 307 304 300 297 294 291 290 288 285 282 278 275 274 273 272 273 274 273 269 264 257 250 245 242 238 236 235 234 234 233 234 235 234 235 235 234 233 233 243 261 256 251 255 262 262 258 255 258 265 272 277 282 287 291 294 296 297 293 286
338 338 339 342 345 343 337 331 330 330 330 331 330 328 327 324 324 323 321 321 321 319 317 315 314 312 310 307 303 300 296 292 290 286 283 280 277 274 272 271 272 272 273 271 268 263 256 248 244 240 236 235 234 234 233 232 232 233 232 232 233 233 230 231 238 250 254 250 251 257 259 253 251 256 263 269 276 283 286 290 294 297 299 296 290
336 336 338 341 341 339 336 332 332 333 333 332 330 328 326 325 324 322 319 319 319 318 316 313 311 311 309 307 305 303 300 297 294 289 285 281 278 275 271 269 269 270 269 269 268 263 254 246 241 237 234 234 234 234 233 231 230 230 231 231 231 232 230 230 236 242 251 250 247 253 255 248 247 254 262 268 275 282 284 289 295 296 298 298 292
336 336 339 338 339 340 339 335 335 335 333 331 328 327 326 325 325 321 318 317 317 315 313 311 310 308 307 306 305 303 301 299 297 293 288 284 280 276 272 269 268 268 267 268 267 262 253 245 239 235 233 233 234 233 232 231 230 230 231 231 230 232 232 232 235 240 247 250 245 249 252 249 249 254 260 267 273 280 284 288 293 295 297 297 291
335 338 339 337 339 341 339 334 334 332 330 328 326 326 326 324 323 320 316 315 315 314 312 311 310 308 306 305 304 302 300 298 296 294 291 290 288 284 278 271 267 266 265 265 265 261 253 245 240 235 232 232 232 232 231 229 229 229 230 230 230 232 232 233 237 240 243 246 244 246 251 251 252 253 257 264 272 278 282 285 290 297 298 294 289
335 337 337 338 339 339 334 331 331 328 327 326 325 325 324 322 320 319 317 315 314 314 312 310 310 308 306 305 303 302 302 302 303 302 299 296 293 290 286 281 274 269 267 266 266 261 252 245 241 237 233 232 231 231 229 228 228 228 229 229 230 231 232 233 236 238 240 242 243 243 247 248 247 250 255 261 268 274 280 286 291 297 298 294 292
332 333 336 338 337 334 331 329 328 327 326 325 323 322 322 321 319 318 317 315 314 314 313 310 309 307 304 303 302 301 301 303 304 303 299 295 289 285 284 282 279 276 272 269 266 260 252 245 241 238 235 233 232 231 229 228 228 229 229 229 229 229 231 231 233 236 238 241 242 240 241 245 245 248 255 260 264 267 271 283 292 295 296 296 298
329 334 336 337 335 331 330 329 327 326 325 323 322 321 320 319 318 317 316 315 313 312 311 310 308 306 303 301 301 300 300 299 299 298 296 294 289 284 281 277 274 271 269 267 263 258 252 246 242 240 237 236 234 232 230 229 229 229 228 228 227 228 228 228 230 233 236 239 241 238 237 239 238 241 248 248 247 256 263 271 281 290 297 297 299
330 336 336 335 333 330 329 328 326 325 323 322 322 320 320 318 317 316 315 314 313 312 311 310 308 306 304 302 302 302 301 299 298 297 294 291 287 282 276 270 266 263 263 263 260 256 252 246 243 241 239 237 236 235 234 233 231 230 228 226 225 225 226 227 228 229 233 238 239 236 233 232 227 227 233 235 237 251 263 266 271 283 294 296 294
331 336 335 333 331 328 327 326 324 324 323 322 321 320 319 318 317 316 315 315 315 315 313 311 309 308 306 305 305 304 303 302 300 297 293 291 290 287 280 273 267 261 257 256 254 252 249 246 243 241 239 237 237 235 234 234 234 233 232 229 227 225 223 223 225 225 228 233 234 233 235 237 230 222 228 238 244 249 254 258 268 278 287 294 293
331 334 332 330 329 327 326 325 324 324 323 322 321 321 320 319 319 318 317 317 317 317 315 313 312 310 308 307 307 305 305 304 302 299 296 294 294 293 290 286 282 274 260 252 249 247 245 243 241 239 238 236 235 233 232 234 237 237 235 232 229 228 225 222 222 223 225 230 233 233 235 239 235 227 230 240 242 242 247 253 261 268 268 274 283
329 331 330 330 329 328 327 327 326 326 325 323 323 322 321 320 320 319 319 319 319 318 316 314 313 312 310 309 307 306 306 305 302 300 299 297 294 291 287 284 282 278 266 252 246 243 240 239 238 236 235 234 234 233 232 235 239 240 239 235 231 229 228 225 225 224 224 226 231 232 233 237 237 231 231 235 235 236 244 251 252 253 253 249 247
328 329 329 329 329 329 329 328 327 325 325 324 323 323 322 321 320 320 320 320 319 318 317 315 314 313 312 310 308 307 306 304 303 301 299 297 294 292 290 285 281 276 266 251 242 238 236 235 233 233 234 233 233 233 233 235 237 239 241 241 239 238 237 233 231 230 228 225 226 231 233 233 234 233 233 234 232 230 235 242 244 243 245 247 253
327 328 329 329 330 330 330 328 326 325 325 325 324 323 323 321 321 321 321 320 319 318 317 316 315 314 313 312 310 307 305 304 304 303 300 298 296 295 294 292 289 284 270 251 239 235 233 231 229 229 231 232 232 231 232 234 234 236 237 239 243 246 247 248 247 246 242 231 226 231 235 235 235 237 238 235 230 228 231 237 239 239 244 254 266
326 328 329 329 330 331 330 328 326 325 325 325 324 324 323 322 322 322 321 320 318 317 316 315 315 314 314 313 309 305 304 306 307 304 302 300 298 298 298 298 298 294 280 257 242 234 232 230 229 228 229 230 230 229 230 231 231 232 234 236 242 244 246 250 252 255 257 248 236 234 237 238 240 241 240 237 236 237 241 244 242 245 255 263 270
328 330 329 330 330 330 329 327 325 325 325 325 324 324 323 323 322 322 321 319 317 316 315 315 315 314 314 312 308 305 305 307 307 305 304 302 299 300 302 303 303 299 286 265 247 237 234 231 229 229 228 229 230 228 227 228 227 228 231 235 239 242 245 249 250 251 253 254 250 243 239 241 246 246 242 239 239 239 238 241 242 242 247 257 270
329 330 329 329 329 328 328 326 325 324 325 324 324 323 323 321 321 322 320 317 317 316 315 315 315 313 311 310 308 306 306 306 306 306 305 303 301 300 301 302 305 304 294 275 256 243 237 234 231 230 228 229 231 230 227 226 224 222 226 232 235 238 244 249 251 250 246 247 251 248 241 239 240 241 238 235 235 232 222 224 231 228 223 233 259
329 329 328 327 327 326 327 326 324 324 323 323 322 321 321 320 320 320 319 316 316 316 315 315 314 312 310 310 309 306 304 304 305 305 305 303 300 298 299 299 300 302 299 285 267 252 245 241 236 232 232 234 234 231 230 230 224 219 221 225 227 231 239 246 250 251 248 244 246 247 244 239 233 230 228 224 221 219 215 218 222 216 210 217 228
328 327 325 325 325 325 326 325 324 323 322 322 321 321 320 320 320 319 318 316 315 316 316 314 313 312 312 311 310 307 304 305 306 304 304 303 300 297 296 294 294 295 295 287 273 260 251 244 237 234 235 237 235 232 232 232 228 223 221 220 220 228 237 242 245 251 253 247 244 244 244 246 243 233 227 221 217 216 219 224 224 214 209 215 214
326 325 325 325 325 326 327 326 325 324 323 322 322 321 321 320 320 319 318 318 317 316 316 314 312 313 313 313 312 309 306 306 306 304 302 301 299 297 293 290 289 291 291 283 270 260 251 245 241 239 237 236 234 232 234 234 230 228 224 220 222 231 238 240 241 247 254 253 248 243 241 246 254 245 227 221 222 223 224 227 228 222 216 214 209
325 325 325 325 326 327 327 327 326 325 324 324 322 322 322 321 320 319 319 319 318 317 316 316 314 314 314 314 313 312 310 309 306 304 303 300 299 297 293 288 284 282 281 277 267 258 250 244 245 244 242 242 240 236 237 236 233 230 226 224 229 235 235 236 238 240 245 249 250 247 240 240 247 248 235 223 223 225 226 227 228 227 223 221 217
325 325 325 325 326 327 328 329 328 327 326 326 324 323 324 323 321 320 320 319 319 317 316 317 315 314 316 316 315 315 315 314 312 308 304 300 297 296 292 286 280 274 269 264 258 253 248 244 245 246 244 245 247 246 244 243 241 237 232 229 232 235 232 232 232 230 232 236 237 238 236 231 233 240 242 237 232 232 236 237 235 233 232 233 232
325 325 325 326 326 328 328 329 329 328 327 328 326 323 324 324 322 322 322 320 319 318 317 318 318 316 317 317 317 318 319 318 318 315 309 301 297 296 293 286 279 273 266 262 257 253 249 245 243 243 241 242 246 247 247 248 248 246 243 237 235 234 229 224 223 222 223 225 225 225 225 224 225 231 237 240 242 243 246 248 247 245 244 242 240
326 326 326 326 326 327 328 328 329 328 328 329 327 324 325 324 322 323 323 321 319 316 316 318 318 316 316 316 316 319 321 321 321 321 317 308 297 295 295 292 286 277 270 267 265 259 253 248 243 243 244 245 247 247 247 249 248 247 247 245 242 239 229 215 211 214 215 216 218 217 216 217 220 226 233 239 245 247 246 246 246 245 245 244 241
327 326 326 326 326 327 327 327 328 329 329 329 327 325 325 325 323 323 323 322 318 315 315 318 317 314 313 313 314 318 323 324 323 323 324 320 309 302 299 294 290 284 275 272 271 264 257 252 248 246 246 247 249 250 250 251 249 246 245 243 243 247 237 213 203 206 209 210 214 215 213 214 218 225 233 239 242 241 238 237 237 236 237 238 239
327 326 326 325 326 326 327 327 328 329 329 329 328 326 325 324 322 321 322 321 318 316 316 317 317 314 313 313 315 321 325 325 325 327 328 323 316 309 304 296 288 281 274 272 270 264 260 257 253 251 252 252 251 251 251 251 250 248 246 241 238 243 241 219 201 198 204 209 211 213 214 216 220 227 232 234 232 230 227 224 222 221 220 222 227
327 326 325 325 326 326 326 326 326 327 328 329 329 328 327 326 323 321 321 319 318 318 318 316 315 314 315 317 321 325 327 326 327 329 329 325 317 306 299 294 290 283 274 269 267 261 259 259 256 254 257 259 255 251 249 246 243 242 245 246 241 237 236 227 209 201 205 210 211 213 214 214 218 224 224 220 219 218 215 209 204 202 201 204 212
327 325 324 324 324 325 325 325 325 326 327 328 328 328 328 327 324 321 320 319 318 317 314 310 311 317 320 321 325 327 326 327 328 329 334 343 343 329 307 288 281 281 278 272 267 260 254 253 255 260 266 268 265 262 258 251 244 238 237 242 244 237 233 231 219 208 207 210 210 210 208 205 208 212 212 211 213 213 209 204 199 194 190 191 199
327 324 324 324 324 325 325 325 325 326 326 326 327 327 327 326 324 321 322 322 320 317 313 311 318 328 329 327 329 327 324 326 330 334 344 357 1 356 347 318 282 274 277 272 257 249 249 244 243 252 260 262 262 263 266 262 250 239 233 234 238 235 228 226 223 212 206 207 207 204 200 197 199 202 202 206 214 216 210 205 205 199 189 187 194
326 325 325 324 325 325 325 325 326 326 326 326 327 326 327 328 326 323 324 324 323 322 322 324 335 342 340 335 335 333 330 333 337 342 350 359 0 360 5 5 339 277 251 231 219 229 241 239 233 238 244 250 253 257 270 270 231 209 213 219 223 223 218 217 222 216 204 201 203 202 197 194 193 194 196 200 210 215 209 206 207 201 191 188 194
325 324 324 324 325 325 325 324 325 326 326 327 327 327 327 329 330 330 329 328 328 330 332 335 342 347 347 343 341 342 344 345 346 347 352 0 2 360 5 13 13 6 174 157 181 235 241 243 250 250 246 249 251 250 280 304 113 117 123 144 169 184 190 196 208 210 201 197 198 198 195 192 189 189 191 194 199 201 199 201 202 197 191 190 194
324 323 324 324 325 325 325 325 326 326 326 328 329 328 328 328 330 332 334 334 334 335 338 340 344 348 350 348 346 348 351 352 353 354 356 1 4 2 6 16 22 33 68 78 54 38 39 39 30 28 34 47 62 75 72 61 77 89 93 95 102 112 122 134 155 173 177 179 181 182 183 183 182 181 183 184 185 184 185 190 193 192 192 196 203
326 323 324 325 325 325 325 325 325 325 326 326 328 329 329 328 327 328 332 335 337 339 341 343 346 348 350 350 349 351 354 355 357 359 1 3 6 6 11 22 28 37 49 52 44 38 39 41 40 40 43 46 49 56 63 62 61 69 80 84 87 92 97 101 111 122 131 140 147 151 157 163 168 171 175 176 178 179 181 185 187 188 191 194 202
329 326 325 326 324 323 324 324 324 324 324 325 326 327 328 328 327 326 329 333 336 338 341 344 348 349 349 349 350 352 354 357 360 1 4 7 8 9 16 27 32 37 41 41 37 33 33 35 36 38 40 43 47 51 55 58 60 66 75 82 84 86 88 91 96 99 103 114 126 133 141 152 161 167 171 175 180 184 186 188 189 190 192 191 193
330 328 328 327 325 323 323 323 323 323 323 324 326 327 326 327 328 328 329 331 331 331 334 339 345 348 347 348 350 352 353 356 360 3 7 10 12 16 23 27 25 26 28 29 28 28 30 29 30 33 38 41 45 48 52 56 61 64 68 76 81 83 85 87 90 94 103 115 130 148 161 169 177 180 180 184 191 195 198 202 203 203 205 206 205
330 328 328 329 327 325 323 323 323 323 323 323 324 326 326 327 327 327 329 330 328 327 329 334 339 343 346 348 351 352 354 356 359 5 9 11 15 23 28 25 18 17 18 19 19 21 24 26 26 28 34 39 41 44 48 53 57 60 62 67 70 69 74 80 86 113 161 183 195 203 205 207 207 206 203 204 207 211 216 220 221 220 220 219 220
329 327 327 328 328 325 323 323 323 323 323 324 325 326 326 327 329 329 330 330 330 329 330 334 338 342 345 349 351 352 352 354 358 4 10 13 18 24 25 19 15 16 15 14 15 16 17 20 22 24 28 33 35 36 39 42 47 52 57 61 64 68 75 84 95 191 225 226 225 224 224 223 220 219 218 217 216 218 221 224 227 227 225 222 222
329 327 327 328 328 325 323 323 323 324 325 326 327 328 327 328 329 331 331 330 331 331 331 334 340 342 341 343 347 349 351 354 358 2 8 12 16 18 19 16 14 13 10 9 13 15 15 16 19 20 23 26 28 29 30 31 32 37 43 55 77 99 109 111 120 148 195 215 217 217 218 216 213 215 217 218 217 216 215 219 222 222 219 217 216
328 327 328 329 328 326 324 322 322 324 325 326 328 328 327 328 329 330 331 330 330 331 332 334 339 341 340 340 344 348 351 355 357 359 3 8 11 12 13 13 12 10 7 6 8 11 14 16 17 17 18 21 23 23 23 23 26 29 32 46 92 119 120 111 109 128 165 190 196 199 204 205 204 206 210 214 215 213 211 213 217 219 218 215 213
327 325 327 328 328 326 325 323 322 323 325 326 327 326 326 327 328 329 330 330 329 330 332 333 335 339 340 341 344 349 351 352 352 353 357 4 7 8 9 10 9 7 5 4 4 7 10 14 17 18 17 19 21 21 21 22 23 26 33 51 82 100 101 95 96 114 144 164 177 187 195 201 204 207 211 213 213 213 213 213 215 218 218 216 214
325 323 324 326 326 326 325 323 322 323 324 324 324 325 325 326 327 327 328 328 328 328 330 331 334 337 340 342 345 350 352 350 350 352 355 0 4 5 5 6 6 5 5 4 4 5 6 9 14 15 15 17 20 21 22 24 24 25 34 52 69 78 83 86 89 102 125 139 156 173 186 203 212 214 214 213 210 212 216 217 218 220 220 218 217
323 321 321 323 325 325 323 322 321 322 323 323 324 324 324 324 326 326 326 326 327 327 328 330 333 336 340 342 346 350 352 351 351 352 354 356 360 2 2 2 2 3 4 4 5 6 6 8 12 14 14 15 16 16 18 21 22 25 32 40 50 59 67 77 86 95 109 120 149 179 184 196 212 207 200 201 205 209 214 217 218 219 218 216 213
321 319 319 321 323 322 320 320 320 321 322 322 322 323 324 324 324 325 324 324 325 326 327 329 332 335 339 343 346 349 352 352 352 352 353 354 355 357 358 358 358 0 3 4 6 9 9 9 12 15 16 16 15 15 16 17 18 23 29 33 39 45 47 53 66 80 81 68 68 154 177 183 200 194 179 185 197 203 206 210 212 213 215 214 212
320 318 318 318 320 320 319 319 320 320 320 320 320 320 322 324 324 325 325 324 325 325 326 328 331 333 336 341 346 348 349 350 350 350 352 353 353 353 354 355 356 358 0 2 5 8 10 9 8 9 11 15 18 19 19 20 20 23 27 29 33 34 33 34 39 43 49 58 66 86 119 139 171 186 177 179 194 202 204 205 207 210 212 213 213
318 318 317 317 318 318 318 319 320 320 320 320 320 321 323 324 324 326 326 325 325 325 325 327 330 332 334 338 342 344 345 347 347 348 349 351 352 351 351 352 354 356 358 0 3 7 9 10 9 7 7 11 15 18 20 23 25 25 28 30 33 34 35 33 30 29 27 27 68 103 118 129 131 154 179 181 184 195 199 200 203 205 207 211 214
318 317 316 315 315 315 316 317 318 319 320 320 319 320 322 323 323 325 326 326 326 325 324 326 328 330 332 335 338 339 341 343 344 345 347 349 350 350 350 351 353 355 357 359 2 6 8 9 10 10 9 8 11 14 16 19 23 25 27 30 31 32 31 29 24 26 29 27 35 70 134 178 172 184 206 187 173 178 185 188 195 199 200 205 211
317 317 316 315 314 313 313 314 316 316 317 318 317 318 319 320 321 322 324 325 326 325 323 325 327 328 329 332 334 336 338 340 341 342 344 346 348 350 351 351 352 354 356 357 360 4 8 8 8 10 10 8 7 7 7 9 14 15 17 21 21 18 17 17 17 19 26 30 37 48 46 31 331 344 166 170 172 181 187 188 193 195 195 198 203
316 316 315 314 313 312 311 313 314 313 314 315 316 316 316 317 318 319 321 323 325 325 324 325 326 327 328 329 330 332 334 337 338 340 342 344 346 349 351 351 352 354 355 355 357 360 4 5 4 4 5 5 3 1 358 356 359 1 1 3 4 2 2 3 3 3 10 19 29 39 41 40 37 38 93 152 160 166 172 179 189 192 194 196 198
315 315 315 313 312 311 310 311 311 311 312 313 313 313 314 315 315 317 319 321 323 324 324 324 325 326 327 328 328 330 331 334 336 338 340 342 345 348 349 350 352 353 354 355 356 357 359 0 360 358 356 356 356 356 354 348 344 345 347 348 348 349 350 351 352 354 355 355 6 26 38 42 43 38 39 117 154 156 155 160 172 182 188 191 191
316 316 315 313 311 310 311 311 310 310 311 312 310 311 312 313 313 315 318 319 320 322 324 324 324 326 326 327 327 328 329 330 332 336 338 341 343 346 348 349 352 354 354 355 356 357 357 358 358 354 350 347 348 351 353 352 347 342 342 342 342 342 343 344 346 348 344 338 342 4 25 32 32 31 34 31 13 159 152 128 127 150 169 183 188
317 316 315 313 313 312 311 311 311 311 311 311 310 310 310 310 311 314 316 317 318 320 322 323 323 324 325 326 327 327 326 327 328 332 336 339 342 344 346 348 350 352 353 355 357 359 360 359 359 357 352 347 344 347 355 2 1 354 345 342 343 343 343 342 341 339 337 338 336 331 347 7 15 16 19 23 14 3 8 65 97 121 142 165 182